Location: Capannuccia
(43.7000°N, 11.3000°E)
Time: 09:10:03
(UTC+00:00)

STARLINK-2712 - Pass Details

Date: 30 July 2021
Orbit: 546 x 548 km, 53.1° (Epoch: 23 September)

Event Time Altitude Azimuth Distance (km) Brightness Sun altitude
Rises 19:51:43 0° 296° (WNW) 2,704 8.9 -11.7°
Reaches altitude 10° 19:54:14 10° 283° (WNW) 1,808 7.3 -12.0°
Maximum altitude 19:57:34 24° 228° (SW) 1,139 5.3 -12.5°
Enters shadow 20:00:38 11° 176° (S) 1,713 5.7 -12.9°
